Vorticity
32 40 46 42 27 13 10 10 9 10 9 5 5 12 18 20 22 22 16 13 11 3 -1 5 12 16 19 17 13 12 14 16 17 16 12 7 10 15 14 13 16 17 12 11 19 18 9 9 5 -3 2 3 2 14 18 8 1 3 10 7 -5 -9 -6 -6 -4 1 7 7 1 -0 4 5 7 7
31 32 39 48 44 25 11 10 9 9 10 8 4 8 14 18 22 24 18 12 13 10 1 2 8 13 19 18 13 12 14 14 16 18 15 9 7 10 14 16 15 15 18 13 11 23 23 10 4 1 -1 0 2 12 23 19 5 -3 4 18 17 10 12 12 7 5 6 7 5 1 3 6 8 9
34 33 33 41 49 40 20 11 9 9 9 9 5 5 11 15 18 24 23 13 11 15 8 1 2 7 19 24 15 11 15 16 16 16 14 11 8 7 11 19 17 11 18 16 5 18 26 10 8 9 -1 0 0 -2 15 31 19 3 10 26 22 10 15 14 7 9 8 4 5 4 2 5 8 8
33 35 35 36 44 48 34 16 10 9 9 9 7 4 7 14 15 20 27 19 10 15 13 4 1 -0 10 24 21 11 13 19 21 14 7 8 9 8 9 16 19 13 15 18 8 10 19 18 27 29 15 12 4 -8 10 31 24 11 12 19 15 7 11 11 4 4 5 5 5 1 1 6 8 8
34 34 37 36 38 47 44 27 13 8 8 8 8 5 5 12 14 15 25 24 13 15 16 6 3 -1 1 16 23 16 12 17 23 17 7 7 8 7 8 13 17 14 14 18 12 10 12 6 11 25 26 21 10 -2 2 11 15 14 5 5 16 15 11 20 23 13 3 3 6 6 9 12 9 7
37 33 36 38 36 41 45 37 20 9 8 8 7 6 4 9 14 12 21 26 16 17 20 9 4 3 -2 7 19 20 15 15 21 21 13 9 8 7 7 10 14 14 15 19 13 11 12 -8 -21 2 22 16 3 -2 1 1 6 19 16 6 12 13 4 9 20 18 11 8 9 14 16 13 9 7
38 33 33 36 36 38 44 43 27 11 7 7 7 7 4 6 13 11 14 23 19 19 23 13 5 6 -0 1 13 19 17 15 18 21 18 13 9 7 7 8 11 12 14 21 19 13 15 4 -15 -9 11 21 18 13 14 9 -3 4 15 5 -0 7 8 4 3 12 23 25 20 19 18 12 8 7
35 31 31 33 34 35 42 45 35 18 9 7 6 7 5 4 10 11 10 17 19 21 26 17 5 7 4 -0 8 17 17 15 16 18 19 18 13 8 8 8 9 11 10 16 23 19 15 13 4 -8 -9 5 19 18 15 12 4 3 9 4 -3 -0 0 -0 4 10 18 26 28 22 16 12 8 6
30 28 29 30 31 34 39 43 39 25 12 7 6 6 5 5 8 11 10 12 15 20 28 23 8 5 6 0 3 15 17 13 13 16 16 19 19 12 7 9 8 8 10 11 18 24 19 13 10 3 -8 -12 -5 3 7 10 10 4 1 2 1 -2 -4 -4 3 11 11 16 28 28 19 13 9 7
25 25 29 28 28 30 35 40 41 33 17 8 7 5 5 6 7 11 11 10 13 17 25 27 14 5 7 2 -1 9 19 15 10 14 15 15 22 20 11 10 10 7 9 10 12 19 23 18 12 7 3 -3 -8 -8 -1 9 4 -15 -20 -7 -5 -6 3 4 2 11 15 11 18 27 27 22 15 11
23 22 27 28 27 26 28 32 36 37 25 11 7 6 4 5 7 10 10 9 12 14 21 29 21 8 7 7 1 2 15 20 10 10 15 11 15 24 19 15 14 9 8 11 11 13 18 22 20 13 8 9 5 -3 -6 -1 -3 -16 -16 -4 -7 -15 -7 -0 -2 3 8 5 7 16 23 25 22 17
24 22 25 25 28 29 29 29 30 36 33 17 8 6 4 4 6 9 10 9 10 11 18 29 26 15 8 8 6 1 7 20 15 7 13 11 7 16 22 20 19 15 13 14 13 11 13 17 23 22 14 8 5 5 4 -4 -11 -12 -9 -7 -8 -14 -15 -11 -7 -2 3 3 2 6 10 14 19 18
26 20 19 18 22 27 31 28 26 37 39 22 11 8 4 4 6 8 11 10 9 8 14 24 26 20 13 8 8 5 1 13 20 11 9 13 10 11 17 19 19 17 17 18 16 13 11 9 16 25 26 19 6 0 6 9 1 -5 -8 -12 -13 -11 -10 -11 -12 -9 -0 4 3 3 3 5 12 18
30 20 15 15 19 28 32 24 19 35 41 25 15 10 4 3 6 8 10 11 9 7 10 19 22 21 18 10 8 10 4 5 17 16 8 9 11 13 15 17 18 16 16 19 19 20 16 8 5 12 20 28 26 12 2 7 12 12 11 7 0 -4 -3 -3 -4 -6 -7 -2 5 4 -2 1 6 11
32 25 20 18 20 29 34 18 10 31 41 27 19 14 5 3 6 7 9 11 10 8 9 16 18 16 19 15 8 10 9 4 10 17 13 7 9 13 14 15 18 16 15 17 19 22 24 17 9 6 7 12 25 29 17 4 3 7 10 14 14 11 3 -7 -0 11 0 -10 -1 3 -1 3 5 2
33 30 25 18 16 27 33 17 4 23 40 32 23 18 9 5 6 7 9 11 10 8 8 15 16 12 15 18 12 9 10 8 8 13 16 10 5 10 13 14 17 19 15 16 18 20 23 23 19 14 11 6 7 18 25 18 9 1 -0 4 10 19 21 3 -5 11 11 -8 -9 0 4 8 8 4
34 35 28 15 11 22 31 21 9 17 33 34 27 21 14 8 7 8 9 11 11 8 8 13 15 12 12 16 16 12 8 10 9 10 16 15 6 5 10 10 13 19 19 17 19 21 21 22 22 19 17 16 10 9 13 18 18 9 1 0 -1 9 31 30 10 8 12 2 -6 -4 1 5 5 3
32 38 36 18 8 19 25 17 12 16 23 29 27 21 15 10 7 8 9 11 11 9 8 10 11 12 14 14 16 15 9 7 10 9 13 17 10 3 6 8 7 11 17 18 18 21 23 22 23 23 20 19 18 16 13 13 17 15 8 4 -0 2 17 26 17 10 7 2 -2 -6 -9 -4 2 0
26 36 44 27 8 16 20 7 5 14 17 22 25 21 16 13 9 7 8 10 11 8 7 10 9 9 14 15 16 17 11 5 8 10 12 17 15 6 1 5 7 5 8 14 15 16 22 24 22 23 25 23 22 23 22 17 15 15 12 9 7 5 6 7 5 7 8 3 -1 -5 -11 -10 -4 -2
22 28 44 41 18 14 20 7 -1 7 15 20 23 20 17 15 10 8 8 9 12 8 5 9 10 8 10 13 14 18 18 9 5 8 11 15 19 15 5 1 5 7 5 7 10 10 16 23 21 20 23 23 23 26 28 27 25 21 18 16 12 7 8 9 3 -0 6 8 3 -3 -8 -8 -2 2
22 22 34 45 34 22 21 13 -3 -4 7 17 19 17 18 17 11 8 9 10 12 10 5 7 11 9 8 10 11 15 20 17 9 7 10 13 16 19 15 5 2 6 7 5 5 4 8 15 19 20 21 20 21 25 27 28 30 30 28 26 19 8 7 15 16 8 7 10 9 7 -0 -7 -3 4
22 22 24 36 41 33 27 20 4 -7 -1 10 14 14 16 17 12 8 8 10 12 12 6 4 8 9 6 7 9 11 15 17 13 8 9 14 14 14 18 14 5 3 5 6 6 3 2 5 8 12 17 17 16 20 22 22 24 27 29 31 31 26 18 19 23 19 12 8 11 18 14 -2 -8 -5
19 23 23 26 36 38 33 28 17 5 3 8 12 13 14 16 14 9 8 10 12 12 8 4 5 9 6 3 5 9 11 14 14 8 6 10 11 10 14 17 13 6 3 4 5 5 3 3 2 4 8 11 12 13 15 18 19 20 22 24 28 32 31 29 27 26 22 16 16 24 24 9 -4 -8
16 22 24 23 28 34 35 32 25 17 15 14 12 13 13 15 15 11 8 10 12 13 11 6 6 10 9 4 2 6 10 14 15 13 9 8 9 7 8 12 14 11 8 6 4 3 4 4 2 3 5 5 7 8 8 10 12 15 18 19 20 22 25 26 25 24 24 22 20 24 27 20 9 1
14 19 23 23 25 28 31 32 28 21 19 21 19 15 13 14 15 13 9 10 11 13 13 10 8 10 11 8 4 3 7 11 15 17 15 13 12 10 8 9 10 11 12 11 5 2 4 4 2 3 5 4 5 6 6 5 6 7 9 12 15 17 19 20 19 18 18 19 17 18 21 22 20 16
13 17 22 24 24 25 27 29 29 24 19 21 22 18 14 14 15 13 11 10 11 13 15 14 10 10 11 11 7 4 4 6 10 14 16 15 13 13 12 11 8 8 13 14 10 6 4 4 3 3 4 5 5 4 4 5 5 6 6 7 8 11 15 18 18 16 14 14 15 15 14 16 19 20
10 12 20 24 23 23 24 25 26 24 21 21 21 18 15 13 13 13 12 12 12 12 14 16 14 11 11 12 10 7 4 3 5 8 12 14 13 12 13 12 9 9 12 13 13 12 10 6 5 3 2 4 5 4 3 3 3 4 6 6 7 8 9 12 15 17 15 13 13 14 14 14 15 16
8 8 16 25 24 21 21 23 23 22 21 22 22 19 16 13 12 12 13 13 13 13 13 14 15 14 12 12 13 11 7 4 3 4 6 10 13 14 13 12 9 10 11 11 10 12 14 13 10 7 4 3 4 5 6 4 2 3 4 4 5 6 7 9 11 14 16 16 15 15 16 15 15 15
16 14 15 22 24 21 19 20 20 20 20 21 22 20 17 14 12 11 12 13 13 13 12 12 13 14 13 12 12 13 11 8 6 5 4 4 7 12 15 14 12 11 12 10 9 9 11 13 15 14 10 7 4 3 6 7 5 4 3 3 4 4 4 6 7 9 11 13 15 17 18 19 19 18
19 19 18 19 21 21 19 18 18 18 18 19 21 21 18 15 13 11 11 12 12 13 13 13 12 12 13 12 11 12 13 12 9 8 7 5 3 6 10 14 15 15 15 12 9 9 8 9 12 15 15 14 10 6 5 6 7 7 5 4 4 5 5 5 5 6 8 9 11 13 14 15 17 17
13 13 16 19 20 20 19 18 16 16 16 17 19 20 19 16 14 12 11 11 12 13 14 14 14 13 13 13 12 12 13 14 13 11 10 8 6 5 6 8 11 16 19 16 12 11 10 9 9 11 12 15 16 14 11 8 6 7 7 6 5 4 5 5 5 5 7 8 8 8 9 9 11 13
13 9 15 21 22 21 19 17 16 15 14 14 15 17 19 18 15 13 11 11 12 13 13 14 15 15 15 15 14 12 12 13 15 16 15 13 10 7 5 6 8 11 15 18 16 14 13 13 11 10 10 10 13 16 17 15 11 9 7 8 8 6 4 4 5 5 6 6 6 6 6 7 8 9
22 13 15 20 22 22 20 17 16 15 14 13 13 13 15 16 16 15 13 12 12 12 12 13 14 14 15 15 14 14 13 12 11 14 17 18 17 14 8 5 6 8 11 15 16 15 14 15 15 13 12 10 9 11 14 16 17 16 12 9 9 8 6 4 4 5 5 5 5 6 6 6 7 7
30 18 11 11 14 18 20 19 17 16 15 14 12 11 11 12 14 14 14 13 12 12 12 12 13 14 14 15 14 14 14 13 11 10 12 15 19 21 17 11 7 6 8 12 15 15 14 14 15 15 15 13 10 10 10 11 13 17 17 15 13 11 9 7 5 4 5 5 5 6 5 5 5 5
32 27 16 9 9 13 16 18 18 17 16 16 15 13 11 10 10 11 12 12 12 12 12 12 12 14 15 16 17 16 14 14 12 10 10 11 13 18 22 21 16 11 7 7 12 15 15 14 13 14 16 16 14 12 11 9 9 12 15 16 17 16 16 14 11 8 6 4 4 5 6 6 7 6
27 32 25 15 10 10 13 15 17 17 17 17 16 15 13 12 11 10 10 10 10 10 10 11 11 11 12 14 16 18 18 17 16 13 11 11 10 12 16 19 21 19 14 9 8 10 13 15 14 13 13 15 15 15 14 11 9 10 12 12 13 14 16 18 18 16 14 11 8 6 5 5 6 8
22 30 33 25 14 10 11 13 14 15 17 17 17 17 16 15 14 12 10 10 10 9 9 9 9 9 10 10 11 14 16 17 18 17 15 12 11 11 12 14 17 20 20 16 11 9 8 11 14 15 15 14 13 14 15 13 10 9 10 10 10 10 11 13 15 16 17 17 16 14 11 9 8 7
20 24 32 34 24 13 9 11 13 13 14 15 16 17 18 17 16 16 14 12 11 11 10 10 9 9 9 10 10 10 12 13 15 16 16 15 14 12 11 12 13 15 17 18 16 13 11 9 10 12 15 16 16 16 16 17 16 14 13 14 13 12 11 11 11 12 14 16 17 18 17 16 14 13
22 21 26 34 35 25 14 10 12 14 14 13 13 14 16 17 17 17 17 16 15 14 12 11 11 10 9 10 10 11 12 12 13 13 13 14 15 14 13 12 12 12 14 15 16 16 14 11 9 9 10 12 15 17 17 17 17 15 13 12 11 10 10 10 9 8 9 9 11 13 14 13 14 14
24 22 22 27 35 37 27 14 10 12 14 14 13 12 13 15 16 16 17 17 17 17 16 14 14 13 12 11 10 11 12 13 14 14 14 14 14 13 13 12 12 13 13 13 13 15 15 14 12 10 8 7 8 9 9 10 11 12 13 13 13 14 16 16 15 13 11 10 9 9 10 10 10 11
24 24 23 22 27 37 40 30 16 9 10 13 15 13 12 13 13 14 15 16 17 17 17 17 16 15 14 14 13 12 12 13 13 14 15 15 16 15 14 12 11 12 12 12 12 13 13 14 15 14 13 12 11 10 9 9 12 16 18 18 20 20 19 19 18 18 17 16 14 12 11 11 10 10
24 25 26 24 22 26 37 42 34 20 10 10 13 15 14 12 12 12 13 14 16 17 17 17 18 17 16 15 15 14 14 13 13 13 14 15 17 18 18 17 14 13 12 12 13 13 12 12 13 14 14 14 14 14 14 14 15 16 17 17 18 20 20 19 18 16 16 16 15 15 14 13 12 11
19 22 24 26 25 22 26 37 44 38 24 12 10 13 14 13 12 12 11 11 13 14 15 16 17 18 18 17 15 15 15 15 14 14 13 14 15 16 18 20 19 18 17 15 14 14 14 13 11 11 11 12 12 13 14 15 14 14 13 13 14 15 17 18 18 17 15 15 15 15 15 15 14 13
14 17 19 22 25 25 23 26 36 44 41 28 16 11 13 14 13 12 11 11 10 10 11 13 15 16 18 18 18 17 16 16 15 15 13 13 13 14 15 17 19 20 20 20 19 18 17 16 14 12 9 8 8 9 10 10 11 11 12 13 13 13 15 17 18 18 18 17 16 16 17 17 18 18
14 14 15 17 20 23 24 23 26 35 44 44 33 20 13 13 15 14 12 11 10 9 8 9 10 12 14 16 17 17 17 16 16 16 15 14 13 12 12 13 15 17 18 20 21 22 22 22 22 20 16 13 10 8 6 6 6 6 6 8 9 11 12 13 14 15 18 19 19 17 17 17 17 17
Height
5243 5245 5248 5252 5259 5266 5273 5281 5288 5294 5301 5307 5313 5318 5322 5327 5333 5340 5349 5358 5366 5370 5375 5381 5386 5391 5396 5401 5406 5412 5418 5424 5429 5436 5443 5449 5455 5461 5467 5474 5481 5489 5497 5504 5512 5519 5527 5534 5540 5547 5552 5558 5563 5567 5571 5578 5584 5588 5593 5598 5601 5606 5610 5613 5618 5622 5626 5631 5635 5639 5644 5649 5653 5657
5230 5232 5235 5238 5244 5252 5259 5268 5276 5284 5291 5298 5304 5309 5314 5318 5324 5332 5340 5349 5356 5361 5368 5374 5379 5383 5389 5394 5399 5405 5411 5416 5422 5429 5435 5441 5448 5453 5459 5466 5473 5480 5488 5497 5504 5512 5520 5527 5533 5539 5545 5551 5557 5561 5565 5571 5576 5581 5585 5591 5595 5598 5602 5606 5610 5615 5619 5624 5628 5633 5638 5642 5647 5651
5219 5221 5223 5226 5231 5238 5247 5256 5265 5273 5280 5288 5295 5300 5305 5310 5316 5324 5331 5339 5347 5354 5360 5367 5371 5376 5382 5387 5393 5399 5404 5410 5416 5422 5428 5434 5440 5445 5451 5458 5465 5473 5481 5489 5497 5505 5512 5519 5526 5532 5537 5544 5551 5556 5560 5564 5568 5573 5579 5584 5589 5592 5595 5599 5604 5608 5612 5617 5622 5626 5631 5636 5641 5645
5209 5211 5213 5216 5220 5227 5236 5244 5253 5262 5271 5278 5286 5292 5298 5303 5309 5316 5323 5331 5339 5345 5352 5359 5365 5370 5375 5380 5387 5393 5398 5403 5409 5416 5421 5426 5432 5438 5445 5452 5458 5466 5473 5481 5489 5497 5504 5512 5519 5525 5530 5538 5544 5550 5555 5558 5560 5565 5571 5576 5581 5585 5587 5591 5596 5601 5605 5610 5615 5620 5624 5629 5634 5638
5201 5202 5204 5206 5211 5217 5225 5234 5242 5252 5261 5269 5277 5284 5290 5297 5303 5309 5315 5323 5331 5337 5344 5351 5358 5364 5369 5374 5381 5386 5392 5397 5403 5409 5414 5419 5425 5432 5439 5445 5451 5458 5465 5473 5481 5489 5497 5504 5512 5518 5523 5530 5537 5543 5549 5553 5555 5559 5564 5569 5573 5577 5580 5584 5588 5592 5596 5602 5608 5613 5617 5622 5627 5631
5194 5194 5196 5199 5203 5208 5215 5223 5232 5242 5252 5261 5269 5276 5283 5290 5296 5302 5308 5315 5322 5329 5336 5344 5351 5357 5363 5369 5375 5380 5386 5391 5397 5402 5407 5413 5419 5425 5432 5438 5444 5451 5458 5466 5473 5481 5489 5496 5504 5512 5517 5523 5530 5536 5542 5547 5550 5553 5557 5563 5568 5571 5574 5578 5581 5584 5589 5595 5600 5605 5611 5616 5620 5625
5188 5188 5190 5193 5196 5201 5207 5215 5224 5234 5244 5253 5262 5269 5276 5283 5289 5295 5301 5308 5314 5321 5328 5336 5344 5351 5358 5364 5369 5374 5380 5385 5390 5395 5400 5406 5412 5418 5425 5431 5437 5444 5451 5458 5465 5473 5481 5488 5496 5504 5510 5515 5522 5528 5535 5541 5545 5547 5551 5558 5563 5566 5569 5572 5575 5578 5583 5589 5593 5598 5603 5608 5613 5618
5184 5184 5185 5188 5191 5195 5201 5209 5219 5229 5238 5247 5256 5263 5270 5276 5282 5288 5294 5301 5307 5313 5320 5328 5337 5345 5351 5357 5363 5368 5373 5379 5384 5389 5395 5400 5405 5411 5418 5424 5430 5437 5444 5451 5457 5465 5472 5479 5487 5495 5502 5508 5515 5521 5527 5534 5540 5543 5547 5553 5557 5560 5564 5567 5570 5574 5578 5583 5587 5591 5597 5602 5606 5611
5181 5181 5182 5184 5188 5192 5197 5205 5214 5223 5232 5241 5250 5257 5264 5271 5278 5284 5290 5296 5301 5307 5314 5322 5329 5337 5344 5351 5357 5362 5367 5373 5379 5384 5389 5394 5400 5405 5412 5418 5424 5430 5437 5444 5450 5457 5464 5471 5478 5486 5494 5501 5508 5514 5520 5526 5533 5538 5543 5547 5551 5554 5558 5562 5566 5570 5574 5578 5581 5586 5590 5595 5600 5604
5179 5179 5180 5182 5185 5189 5194 5200 5208 5217 5226 5236 5244 5252 5259 5266 5274 5280 5286 5292 5297 5302 5309 5315 5322 5330 5338 5345 5351 5356 5362 5368 5374 5379 5384 5388 5394 5400 5406 5411 5417 5423 5430 5437 5443 5450 5456 5463 5470 5478 5486 5492 5499 5507 5513 5519 5524 5530 5535 5541 5545 5549 5552 5557 5562 5566 5569 5573 5576 5580 5585 5589 5594 5599
5178 5178 5178 5180 5183 5186 5190 5195 5203 5212 5221 5230 5239 5246 5254 5261 5269 5275 5280 5286 5291 5297 5304 5310 5316 5324 5332 5338 5345 5351 5355 5361 5367 5373 5378 5383 5388 5394 5399 5404 5410 5416 5423 5429 5435 5442 5448 5454 5461 5469 5477 5484 5491 5498 5505 5511 5517 5522 5527 5533 5538 5543 5547 5552 5557 5561 5565 5568 5571 5575 5580 5583 5588 5593
5177 5177 5178 5179 5181 5185 5188 5193 5200 5208 5215 5225 5234 5241 5249 5257 5264 5270 5275 5281 5286 5292 5299 5305 5311 5318 5325 5332 5339 5344 5350 5356 5362 5368 5374 5378 5383 5388 5392 5397 5403 5409 5415 5421 5427 5433 5440 5446 5453 5461 5468 5476 5483 5489 5496 5503 5509 5514 5519 5525 5531 5537 5542 5546 5552 5557 5560 5563 5567 5571 5575 5579 5582 5586
5176 5176 5177 5179 5181 5184 5188 5192 5198 5204 5211 5220 5229 5236 5244 5252 5259 5265 5270 5276 5281 5287 5294 5300 5305 5311 5318 5325 5332 5339 5345 5351 5357 5363 5368 5373 5377 5382 5386 5391 5396 5401 5407 5413 5419 5425 5432 5439 5446 5453 5460 5468 5475 5482 5488 5495 5501 5507 5512 5517 5524 5530 5536 5540 5546 5551 5555 5558 5561 5564 5569 5574 5577 5581
5175 5176 5176 5178 5180 5183 5187 5191 5196 5201 5207 5215 5224 5231 5239 5247 5254 5259 5265 5270 5276 5282 5289 5295 5300 5306 5312 5319 5326 5333 5339 5344 5350 5356 5361 5366 5371 5376 5381 5386 5391 5396 5401 5406 5412 5418 5424 5431 5438 5445 5452 5459 5466 5473 5481 5487 5494 5499 5504 5509 5515 5522 5528 5534 5540 5545 5549 5552 5555 5558 5562 5566 5571 5575
5175 5175 5176 5178 5180 5183 5186 5190 5195 5199 5204 5212 5220 5228 5235 5243 5249 5254 5260 5266 5271 5277 5284 5290 5296 5301 5307 5313 5320 5326 5332 5337 5343 5349 5354 5360 5366 5371 5376 5381 5386 5391 5395 5400 5405 5410 5416 5423 5430 5438 5444 5450 5457 5465 5473 5479 5485 5490 5495 5500 5506 5512 5519 5526 5532 5537 5542 5546 5549 5553 5557 5561 5564 5568
5174 5174 5175 5177 5179 5182 5185 5189 5194 5198 5203 5210 5217 5224 5231 5239 5245 5251 5257 5262 5268 5273 5279 5285 5291 5296 5301 5307 5313 5319 5325 5330 5336 5342 5347 5354 5360 5366 5372 5376 5381 5385 5389 5394 5398 5403 5409 5416 5422 5429 5435 5442 5449 5455 5462 5468 5474 5480 5486 5491 5497 5502 5509 5516 5524 5530 5535 5539 5543 5547 5551 5555 5558 5560
5173 5173 5174 5175 5178 5181 5185 5189 5194 5198 5202 5207 5214 5221 5228 5235 5242 5247 5253 5259 5264 5269 5275 5281 5287 5292 5297 5301 5307 5313 5319 5324 5330 5336 5342 5349 5355 5361 5367 5371 5375 5379 5383 5388 5392 5397 5402 5409 5415 5421 5427 5434 5440 5446 5452 5458 5464 5471 5476 5482 5487 5493 5499 5507 5514 5521 5527 5532 5536 5540 5545 5548 5551 5554
5173 5173 5173 5175 5177 5180 5183 5188 5193 5197 5200 5205 5211 5217 5224 5231 5237 5243 5249 5255 5261 5266 5272 5278 5283 5288 5292 5297 5302 5308 5315 5320 5325 5331 5337 5343 5349 5355 5360 5365 5370 5374 5379 5383 5388 5392 5397 5402 5408 5414 5419 5426 5432 5437 5443 5450 5456 5462 5468 5473 5478 5484 5491 5498 5505 5512 5519 5524 5528 5533 5538 5541 5544 5547
5173 5172 5173 5174 5176 5179 5182 5186 5191 5195 5198 5202 5208 5215 5221 5227 5233 5239 5245 5251 5257 5263 5268 5273 5278 5283 5288 5293 5299 5304 5310 5316 5321 5327 5332 5337 5343 5348 5354 5359 5365 5371 5375 5379 5384 5388 5393 5397 5403 5408 5413 5418 5424 5429 5435 5442 5448 5454 5459 5465 5471 5476 5483 5490 5497 5503 5510 5516 5520 5525 5530 5534 5537 5540
5172 5172 5172 5173 5175 5178 5181 5184 5188 5193 5196 5200 5206 5212 5217 5223 5229 5236 5242 5247 5253 5259 5263 5269 5274 5279 5284 5290 5295 5300 5305 5311 5316 5321 5326 5332 5337 5343 5349 5355 5361 5366 5370 5375 5380 5385 5389 5393 5397 5402 5407 5412 5417 5423 5428 5434 5439 5445 5451 5457 5463 5469 5475 5481 5488 5494 5501 5507 5512 5517 5522 5526 5530 5533
5172 5172 5172 5173 5174 5176 5180 5183 5186 5190 5193 5198 5203 5209 5214 5219 5226 5233 5239 5244 5250 5255 5260 5265 5270 5275 5280 5285 5290 5295 5300 5305 5310 5315 5320 5325 5331 5337 5343 5349 5355 5360 5365 5370 5375 5379 5384 5388 5392 5397 5401 5407 5411 5416 5422 5427 5432 5437 5443 5448 5455 5461 5466 5472 5478 5484 5491 5497 5503 5508 5513 5518 5522 5525
5173 5172 5171 5172 5173 5175 5178 5181 5184 5187 5191 5195 5201 5206 5211 5217 5223 5230 5236 5241 5247 5252 5257 5261 5266 5270 5276 5281 5285 5290 5294 5298 5303 5309 5314 5319 5325 5331 5337 5342 5348 5354 5360 5365 5369 5375 5380 5384 5388 5392 5396 5401 5406 5411 5416 5420 5425 5430 5435 5441 5446 5452 5458 5463 5469 5475 5481 5487 5493 5498 5504 5509 5513 5517
5173 5172 5171 5172 5172 5174 5177 5180 5183 5186 5189 5194 5199 5204 5209 5214 5220 5227 5233 5238 5243 5248 5253 5257 5262 5267 5272 5277 5281 5285 5290 5294 5299 5304 5309 5315 5320 5326 5331 5337 5343 5349 5354 5359 5364 5370 5374 5379 5383 5388 5392 5396 5401 5406 5410 5415 5420 5425 5429 5434 5440 5445 5451 5456 5460 5466 5472 5477 5483 5489 5495 5499 5504 5509
5174 5172 5172 5172 5172 5174 5176 5178 5182 5185 5188 5193 5198 5203 5207 5212 5218 5224 5230 5235 5240 5245 5249 5254 5259 5264 5269 5274 5278 5283 5287 5293 5298 5302 5307 5313 5317 5322 5327 5332 5338 5343 5348 5353 5359 5363 5368 5373 5378 5383 5388 5392 5397 5401 5406 5410 5415 5420 5424 5429 5434 5439 5444 5448 5453 5458 5463 5468 5474 5480 5485 5491 5496 5502
5174 5173 5173 5172 5173 5174 5175 5178 5181 5184 5187 5191 5196 5201 5206 5211 5216 5222 5227 5232 5237 5241 5246 5251 5256 5260 5265 5270 5275 5280 5285 5290 5294 5299 5304 5309 5313 5318 5323 5328 5333 5338 5342 5347 5353 5358 5362 5367 5372 5377 5382 5387 5392 5397 5401 5405 5410 5415 5419 5424 5429 5433 5437 5442 5446 5451 5456 5461 5466 5471 5477 5482 5489 5494
5175 5174 5173 5173 5173 5174 5175 5177 5180 5183 5186 5190 5195 5200 5204 5209 5214 5219 5225 5229 5234 5238 5243 5248 5253 5257 5261 5266 5272 5277 5281 5286 5290 5294 5298 5303 5307 5312 5317 5323 5328 5332 5336 5342 5347 5352 5357 5362 5367 5372 5377 5382 5387 5391 5396 5400 5405 5409 5414 5419 5423 5427 5431 5435 5440 5444 5449 5454 5459 5464 5469 5474 5480 5486
5176 5175 5174 5174 5174 5175 5176 5177 5180 5183 5186 5189 5193 5198 5203 5208 5213 5217 5222 5226 5231 5235 5240 5245 5249 5253 5257 5262 5268 5273 5277 5281 5285 5289 5294 5298 5302 5307 5311 5317 5322 5326 5331 5337 5342 5347 5352 5357 5361 5367 5371 5376 5380 5385 5390 5395 5399 5404 5409 5413 5417 5421 5425 5429 5433 5437 5442 5446 5451 5455 5460 5466 5472 5477
5177 5176 5175 5175 5175 5175 5176 5178 5180 5182 5185 5188 5192 5196 5201 5206 5210 5215 5219 5223 5228 5232 5237 5241 5245 5249 5254 5258 5263 5268 5273 5277 5281 5285 5289 5294 5298 5302 5307 5311 5316 5320 5325 5331 5336 5341 5346 5351 5356 5361 5365 5370 5375 5379 5384 5388 5393 5397 5402 5406 5411 5415 5419 5423 5427 5431 5435 5439 5443 5448 5453 5459 5465 5469
5177 5177 5176 5176 5176 5176 5177 5178 5180 5182 5185 5188 5191 5195 5199 5204 5208 5212 5216 5221 5225 5229 5233 5237 5241 5246 5250 5254 5258 5263 5268 5272 5277 5281 5285 5289 5293 5298 5302 5307 5311 5315 5319 5325 5330 5335 5340 5344 5349 5353 5358 5364 5369 5373 5377 5382 5387 5391 5395 5400 5404 5409 5413 5417 5421 5425 5429 5433 5437 5442 5447 5452 5457 5461
5177 5177 5177 5176 5177 5177 5178 5179 5181 5183 5185 5188 5191 5194 5198 5202 5206 5210 5214 5218 5222 5226 5230 5234 5238 5242 5246 5250 5254 5258 5263 5268 5272 5276 5280 5284 5288 5293 5297 5302 5306 5309 5313 5318 5323 5328 5333 5337 5342 5346 5352 5357 5362 5366 5371 5376 5380 5384 5389 5394 5398 5402 5406 5411 5415 5419 5423 5427 5431 5436 5440 5444 5448 5453
5177 5177 5177 5177 5177 5178 5179 5180 5181 5183 5185 5188 5190 5193 5197 5200 5204 5208 5212 5215 5219 5223 5227 5231 5235 5239 5242 5246 5250 5254 5258 5263 5268 5272 5276 5279 5283 5287 5292 5297 5301 5304 5308 5313 5317 5322 5326 5330 5335 5340 5345 5349 5354 5359 5363 5368 5373 5378 5383 5387 5391 5396 5400 5404 5408 5412 5417 5420 5424 5428 5432 5437 5441 5446
5177 5177 5177 5178 5178 5178 5179 5180 5181 5183 5185 5187 5190 5193 5196 5199 5202 5206 5209 5213 5217 5221 5224 5228 5231 5235 5239 5243 5246 5250 5254 5258 5263 5267 5271 5274 5278 5282 5287 5291 5295 5299 5303 5307 5311 5315 5319 5323 5328 5333 5338 5342 5346 5350 5355 5360 5366 5370 5375 5380 5384 5389 5393 5397 5401 5405 5409 5413 5417 5421 5426 5431 5436 5440
5178 5177 5177 5178 5178 5179 5180 5181 5182 5183 5185 5187 5189 5192 5195 5198 5201 5204 5207 5210 5214 5217 5221 5224 5228 5231 5235 5238 5242 5245 5249 5254 5258 5262 5265 5269 5273 5277 5281 5286 5289 5293 5297 5301 5304 5308 5312 5316 5321 5325 5329 5334 5338 5342 5347 5353 5358 5362 5367 5371 5376 5381 5385 5389 5393 5396 5401 5406 5411 5415 5420 5425 5430 5434
5178 5178 5178 5178 5179 5179 5180 5181 5182 5183 5185 5186 5189 5191 5194 5196 5199 5202 5205 5208 5211 5214 5217 5221 5224 5227 5231 5234 5237 5241 5245 5248 5252 5256 5260 5264 5268 5271 5276 5280 5283 5287 5290 5294 5298 5302 5306 5309 5314 5318 5321 5326 5330 5335 5341 5346 5350 5354 5358 5362 5367 5372 5376 5380 5384 5389 5393 5399 5403 5408 5413 5418 5423 5427
5179 5179 5178 5179 5179 5179 5180 5181 5182 5183 5184 5186 5188 5190 5192 5195 5197 5200 5203 5206 5208 5211 5214 5217 5220 5224 5227 5230 5233 5236 5239 5243 5247 5251 5255 5259 5262 5266 5270 5273 5277 5280 5284 5288 5292 5295 5299 5302 5306 5310 5314 5319 5323 5329 5334 5339 5343 5346 5350 5354 5359 5363 5367 5372 5376 5381 5386 5390 5395 5400 5406 5411 5415 5420
5180 5179 5179 5179 5179 5179 5180 5180 5181 5182 5184 5185 5187 5188 5191 5193 5195 5198 5200 5203 5206 5208 5211 5214 5217 5220 5223 5225 5228 5231 5234 5238 5242 5246 5249 5253 5257 5260 5264 5267 5270 5274 5278 5281 5284 5287 5291 5295 5299 5303 5307 5312 5317 5322 5327 5331 5334 5338 5342 5346 5350 5354 5358 5363 5367 5372 5378 5383 5388 5393 5398 5403 5407 5411
5182 5180 5179 5179 5179 5179 5179 5180 5181 5182 5183 5184 5185 5187 5189 5191 5193 5195 5198 5200 5203 5205 5208 5210 5213 5216 5218 5221 5224 5227 5230 5233 5237 5240 5244 5247 5251 5255 5258 5262 5265 5268 5271 5274 5277 5280 5284 5289 5292 5296 5300 5304 5309 5314 5318 5322 5325 5330 5334 5339 5342 5346 5349 5354 5359 5364 5370 5374 5379 5384 5389 5393 5396 5400
5183 5181 5180 5179 5178 5179 5179 5179 5180 5181 5182 5183 5184 5185 5187 5189 5190 5192 5195 5197 5199 5202 5204 5207 5209 5212 5214 5217 5220 5222 5225 5228 5231 5235 5238 5241 5245 5249 5252 5256 5259 5261 5264 5267 5270 5274 5278 5282 5285 5289 5293 5297 5303 5307 5309 5312 5317 5322 5326 5329 5332 5336 5340 5345 5351 5357 5361 5365 5370 5374 5378 5381 5385 5389
5184 5182 5181 5179 5178 5178 5178 5178 5179 5180 5180 5181 5182 5184 5185 5187 5188 5190 5192 5194 5196 5198 5201 5203 5205 5208 5210 5213 5215 5218 5221 5223 5226 5229 5232 5236 5239 5242 5246 5250 5253 5256 5258 5261 5264 5268 5271 5274 5277 5280 5284 5288 5294 5298 5299 5303 5307 5311 5314 5318 5323 5327 5332 5338 5343 5347 5351 5356 5360 5363 5367 5371 5374 5378
5186 5183 5181 5180 5178 5178 5177 5177 5178 5178 5179 5180 5181 5182 5183 5184 5186 5187 5189 5191 5193 5195 5197 5199 5201 5204 5206 5209 5211 5213 5216 5218 5221 5224 5227 5230 5233 5236 5240 5243 5246 5249 5252 5255 5258 5261 5264 5267 5270 5272 5276 5281 5285 5288 5290 5294 5299 5303 5307 5312 5317 5322 5326 5330 5334 5338 5343 5347 5350 5353 5357 5362 5366 5368
5187 5184 5182 5180 5179 5177 5177 5176 5176 5177 5177 5178 5179 5180 5181 5182 5183 5185 5186 5188 5190 5191 5193 5195 5197 5200 5202 5204 5207 5209 5211 5213 5216 5219 5222 5225 5228 5230 5233 5237 5240 5243 5246 5249 5252 5255 5258 5260 5263 5267 5271 5275 5278 5281 5284 5290 5295 5299 5302 5306 5310 5314 5318 5322 5326 5330 5333 5336 5340 5344 5349 5354 5357 5360
5189 5186 5183 5181 5179 5178 5176 5176 5175 5175 5176 5176 5177 5178 5179 5180 5181 5182 5183 5185 5186 5188 5190 5192 5193 5195 5198 5200 5202 5204 5206 5209 5211 5214 5216 5219 5222 5224 5227 5230 5233 5236 5239 5242 5245 5248 5251 5254 5257 5261 5265 5268 5271 5275 5280 5285 5289 5291 5294 5297 5301 5305 5309 5313 5317 5320 5323 5326 5330 5336 5341 5345 5348 5353
5191 5188 5185 5182 5180 5178 5176 5175 5174 5174 5174 5175 5175 5176 5176 5177 5178 5180 5181 5182 5183 5185 5186 5188 5190 5192 5194 5196 5198 5200 5202 5204 5207 5209 5211 5214 5216 5219 5221 5224 5226 5229 5232 5235 5238 5241 5244 5248 5251 5255 5258 5262 5265 5269 5273 5277 5280 5283 5285 5289 5292 5296 5300 5304 5308 5311 5314 5318 5323 5328 5332 5335 5340 5346
5193 5190 5186 5183 5181 5179 5177 5175 5174 5173 5172 5173 5173 5174 5174 5175 5176 5177 5178 5179 5180 5182 5183 5185 5186 5188 5190 5192 5194 5196 5198 5200 5202 5204 5207 5209 5211 5213 5216 5218 5221 5223 5226 5229 5231 5234 5237 5241 5244 5248 5252 5255 5258 5262 5266 5269 5272 5275 5279 5281 5284 5288 5293 5296 5299 5302 5307 5312 5317 5320 5323 5327 5331 5337
5196 5192 5189 5185 5182 5179 5177 5175 5174 5172 5171 5171 5171 5171 5172 5173 5173 5174 5175 5176 5178 5179 5180 5182 5183 5185 5186 5188 5190 5192 5194 5196 5198 5200 5202 5204 5206 5208 5211 5213 5216 5218 5220 5223 5225 5227 5230 5233 5236 5240 5244 5248 5251 5255 5259 5261 5264 5268 5271 5274 5277 5281 5284 5287 5291 5295 5300 5306 5310 5312 5314 5318 5322 5325